Wind_Speed
28 27 26 26 25 26 25 26 26 26 26 26 25 24 25 25 25 23 23 22 22 23 23 23 23 22 21 20 19 18 17 16 15 15 15 14 14 14 13 13 13 12 11
28 29 29 28 27 26 26 26 27 28 29 29 28 26 26 26 26 25 24 23 23 23 24 24 25 24 23 22 21 20 20 19 17 17 16 16 16 15 15 15 15 14 13
29 31 30 29 27 27 27 27 28 29 29 29 29 28 28 26 26 26 25 24 24 24 24 24 25 25 25 25 24 23 22 21 20 19 19 18 18 18 17 16 16 15 15
33 32 31 30 29 28 27 27 29 29 28 29 30 30 29 28 27 27 26 25 25 24 24 24 25 26 26 25 25 25 24 23 22 21 21 20 20 19 19 18 17 17 16
36 35 34 32 32 30 29 29 29 29 30 30 30 29 28 28 28 28 28 27 26 25 25 25 26 26 26 26 26 27 26 25 24 24 23 22 22 21 21 21 20 19 18
37 36 35 34 33 32 31 29 29 29 30 30 31 29 28 29 29 28 28 29 28 27 26 25 25 26 26 26 27 27 27 27 26 26 25 24 24 24 23 23 22 21 20
38 37 36 35 34 33 31 30 29 28 29 29 30 30 30 30 29 29 28 29 29 28 28 27 25 26 26 26 26 27 27 27 26 26 25 25 25 26 25 25 24 24 23
38 38 37 36 34 33 31 30 30 29 29 29 30 30 30 30 30 29 28 28 29 29 29 28 26 26 26 26 26 27 26 26 26 26 26 25 26 26 26 26 26 26 25
39 38 37 36 35 34 32 31 31 30 29 31 31 31 31 30 31 31 30 29 30 30 30 29 28 27 26 26 26 26 26 26 26 26 26 26 26 26 26 27 27 27 27
39 38 37 36 35 34 33 32 32 30 31 32 32 32 31 30 31 32 32 32 32 31 30 29 29 28 27 26 25 25 25 26 26 26 25 24 25 25 26 27 27 28 28
39 38 38 37 36 35 34 33 33 32 31 31 32 32 32 32 31 32 32 33 33 32 32 30 30 28 27 27 25 25 25 24 25 25 25 24 24 25 25 25 26 27 28
39 39 39 38 37 36 35 35 34 33 33 32 32 32 33 32 31 33 33 33 34 34 33 32 30 29 28 28 26 26 26 25 25 25 25 24 24 24 24 24 24 25 26
40 40 40 40 39 39 38 36 36 35 35 34 34 34 34 33 34 34 34 35 35 35 34 33 32 30 29 29 28 27 26 25 25 25 26 24 24 24 23 23 22 23 24
41 41 41 41 41 41 40 39 38 37 37 36 35 36 36 36 36 35 35 36 36 35 35 35 34 33 32 30 30 29 28 26 26 26 25 24 23 23 22 22 22 23 24
41 41 41 41 42 42 42 41 40 39 38 38 37 37 38 39 38 38 37 37 37 36 36 36 36 35 34 33 32 30 29 28 26 26 25 24 23 22 22 21 20 21 22
41 42 42 42 42 42 43 43 41 41 40 40 39 39 39 40 40 39 40 40 39 38 38 37 37 36 36 35 34 32 31 29 28 26 25 24 24 23 22 21 19 19 20
42 43 43 42 42 42 43 44 44 44 43 43 42 41 42 41 41 41 43 42 41 41 41 40 40 38 38 37 36 35 33 32 30 28 27 26 25 24 23 22 20 19 19
41 41 42 42 43 44 45 45 45 46 46 46 46 45 45 44 44 44 45 44 43 42 42 42 42 40 39 39 39 37 36 34 33 30 29 28 27 26 24 23 22 21 20
40 40 40 41 41 43 45 46 47 47 48 48 49 49 49 49 48 48 47 47 46 45 45 44 43 42 41 41 41 40 38 36 35 33 31 30 28 27 26 25 23 22 21
37 37 38 38 39 40 42 44 45 47 49 50 51 51 52 52 51 52 51 50 50 49 48 48 46 45 44 43 43 41 40 39 37 35 34 32 30 28 27 26 25 24 22
35 34 34 35 37 37 38 40 43 45 47 50 51 53 54 54 54 55 55 53 52 52 52 51 50 49 48 46 45 43 42 41 40 38 36 35 33 31 29 28 27 26 25
32 31 31 32 33 34 35 37 40 42 45 48 50 52 54 55 55 56 56 56 56 55 54 54 54 53 51 49 47 46 45 44 43 41 40 38 36 34 32 31 29 28 27
29 29 29 29 30 31 32 33 35 37 41 44 46 49 51 54 55 56 56 57 57 57 57 56 56 55 54 52 50 48 47 46 45 44 43 41 39 37 35 34 32 30 29
27 27 27 26 26 26 27 29 31 32 35 39 42 46 48 51 54 55 56 57 57 57 58 58 57 57 56 54 52 50 49 48 48 46 45 43 42 40 38 36 34 33 32
25 24 23 22 21 21 22 24 25 27 29 33 37 40 42 46 50 52 53 55 56 57 59 59 58 58 57 56 54 53 51 50 49 48 46 44 43 42 40 39 37 36 34
23 21 19 18 16 16 16 18 20 22 24 27 31 34 37 40 45 49 51 52 53 55 56 57 58 58 57 57 56 53 51 51 50 48 48 47 45 44 43 41 39 38 36
Wind_Direction
283 285 283 284 284 281 280 277 271 267 263 259 258 259 258 254 253 252 246 244 244 242 238 233 233 231 229 226 224 222 220 217 215 214 213 212 211 211 211 211 210 211 211
283 288 285 283 282 279 277 277 272 270 264 259 257 255 254 253 250 249 244 242 241 240 239 237 234 231 229 227 226 226 224 221 220 220 219 218 217 216 215 215 215 215 215
288 290 287 284 282 279 277 276 272 269 265 259 257 255 252 252 249 246 243 240 240 241 239 238 233 232 230 227 227 227 226 226 225 224 224 223 223 221 219 218 218 219 219
293 293 292 287 284 280 279 277 274 267 263 260 258 257 252 249 248 245 240 237 238 238 238 237 233 231 230 229 228 227 227 228 227 226 225 226 226 225 223 221 222 223 224
290 291 291 289 288 285 282 278 274 267 260 259 257 256 251 249 247 243 239 236 236 236 236 235 233 230 230 230 229 228 228 228 229 228 227 227 227 227 226 225 226 226 227
287 287 287 287 285 284 280 275 270 265 259 258 255 252 249 248 245 242 240 235 233 233 233 232 234 230 229 230 228 227 227 228 229 229 230 229 228 228 228 228 228 228 229
285 284 284 284 283 281 277 272 268 264 259 256 252 248 245 245 244 243 240 234 231 231 231 231 230 227 227 227 226 226 226 227 228 228 230 231 230 230 230 231 230 230 231
283 282 281 280 279 278 274 269 266 262 257 252 249 247 243 244 243 242 238 233 230 229 229 230 229 227 227 226 225 225 226 226 226 227 229 230 231 231 232 231 232 232 232
281 280 279 277 276 275 273 268 264 260 253 250 248 245 241 241 241 238 236 232 229 229 228 228 227 226 226 225 224 225 225 224 226 227 228 230 230 231 232 232 234 234 234
279 278 277 275 274 273 272 269 263 258 254 252 248 246 242 239 240 238 235 231 229 228 227 225 224 226 224 222 224 223 224 224 226 227 228 228 229 230 232 233 234 235 235
277 276 275 273 272 271 270 267 262 257 252 250 247 244 242 240 239 237 231 229 227 226 224 223 223 224 222 222 224 223 223 224 227 226 226 228 229 230 231 232 234 235 235
276 275 273 271 269 268 267 265 263 256 252 249 245 243 241 238 236 232 229 227 226 224 222 221 222 222 222 221 223 223 222 224 225 225 226 227 227 228 228 231 234 234 233
276 274 271 269 268 266 265 263 261 257 252 249 245 241 238 237 233 231 228 226 225 222 221 221 221 222 221 222 222 222 222 223 224 225 225 225 225 227 227 229 232 232 232
277 274 271 269 267 265 263 260 258 256 252 247 244 241 237 234 231 229 227 225 223 221 220 221 221 221 221 221 222 221 222 222 223 222 222 223 223 224 225 227 228 230 230
278 274 271 268 265 263 260 258 255 253 251 246 242 239 236 234 232 229 227 224 221 220 219 220 219 219 220 221 222 222 222 222 222 221 220 221 221 222 224 225 226 228 228
279 275 273 269 265 261 258 256 253 251 248 246 242 238 235 232 228 226 226 225 223 219 217 218 218 218 219 220 221 222 222 223 222 221 220 220 221 221 221 222 223 225 225
280 276 273 269 265 261 258 256 253 250 247 244 241 238 234 231 228 225 225 223 222 220 218 217 217 218 219 218 219 221 221 222 222 222 221 219 219 220 220 221 223 226 226
283 278 274 270 265 261 258 255 252 249 246 243 240 237 234 232 228 227 225 223 222 220 218 218 218 218 219 220 220 220 220 221 222 221 221 220 220 221 221 222 224 227 228
285 280 276 272 268 263 259 255 251 248 245 242 239 237 233 231 230 228 227 225 223 222 220 219 218 219 219 220 220 221 221 220 221 221 222 222 222 222 223 224 225 228 230
287 281 277 273 269 266 261 255 250 246 243 241 239 237 234 231 230 229 228 226 225 223 221 220 220 220 221 221 221 221 222 221 221 222 223 224 224 224 224 226 227 228 230
290 285 280 275 271 266 262 256 250 245 242 239 238 236 234 232 231 229 229 228 227 226 224 222 221 221 221 221 222 222 222 222 223 224 224 225 225 226 226 227 228 229 230
295 289 284 279 273 268 263 258 252 246 242 239 237 236 234 233 231 230 230 229 228 228 227 226 224 223 222 221 221 222 222 224 225 225 226 226 226 227 228 229 230 231 232
299 294 289 285 278 271 264 258 253 247 242 238 235 234 234 233 231 230 230 230 230 230 229 227 226 225 225 225 224 223 223 224 224 226 227 227 228 229 230 231 232 234 235
306 300 293 289 284 275 265 256 252 247 241 237 234 232 232 232 231 231 230 230 230 230 230 229 228 226 226 226 226 226 225 225 225 225 226 228 228 229 231 232 234 236 237
317 310 302 296 289 279 268 259 252 245 241 236 232 231 231 231 231 230 230 229 229 229 230 230 229 228 227 226 226 227 227 227 227 227 228 228 229 230 232 234 235 237 239
330 324 315 306 296 286 274 262 251 244 239 235 231 228 228 229 229 229 229 229 229 229 229 229 229 229 228 228 228 227 227 228 228 228 228 230 230 231 232 234 236 237 239
Height
5860 5858 5858 5857 5855 5855 5855 5855 5856 5856 5857 5857 5858 5859 5860 5861 5863 5865 5866 5868 5869 5871 5874 5876 5879 5881 5884 5886 5889 5891 5893 5895 5897 5899 5901 5903 5905 5907 5909 5911 5913 5915 5917
5851 5851 5850 5849 5848 5847 5847 5847 5848 5848 5849 5850 5851 5852 5853 5854 5856 5858 5860 5862 5864 5865 5868 5871 5873 5876 5879 5882 5885 5887 5890 5892 5894 5896 5899 5901 5903 5905 5907 5909 5911 5913 5915
5844 5844 5842 5841 5839 5838 5839 5839 5839 5840 5841 5842 5843 5845 5846 5847 5849 5852 5854 5856 5858 5860 5862 5865 5868 5871 5874 5877 5880 5883 5886 5888 5891 5893 5896 5898 5900 5902 5905 5907 5909 5911 5913
5837 5836 5835 5833 5832 5831 5831 5831 5832 5832 5833 5834 5835 5837 5838 5840 5843 5845 5847 5850 5852 5855 5857 5860 5863 5866 5869 5872 5875 5878 5881 5884 5887 5889 5892 5894 5897 5899 5901 5904 5906 5908 5910
5830 5828 5827 5825 5824 5822 5823 5823 5824 5824 5825 5826 5828 5829 5831 5833 5836 5838 5841 5844 5846 5849 5851 5854 5857 5860 5863 5867 5870 5873 5876 5879 5882 5885 5888 5890 5893 5895 5898 5900 5903 5905 5907
5821 5820 5819 5817 5816 5815 5815 5815 5814 5816 5817 5818 5820 5821 5824 5826 5828 5831 5834 5837 5840 5843 5846 5849 5852 5854 5858 5861 5864 5868 5871 5874 5877 5880 5883 5886 5888 5891 5894 5896 5899 5901 5904
5812 5811 5810 5809 5808 5808 5807 5807 5807 5807 5808 5810 5812 5814 5816 5819 5822 5824 5827 5830 5833 5836 5840 5843 5846 5849 5852 5855 5859 5862 5865 5869 5872 5875 5878 5881 5883 5886 5889 5892 5894 5897 5900
5802 5801 5800 5800 5799 5799 5799 5798 5798 5799 5800 5802 5804 5805 5808 5812 5814 5816 5819 5822 5826 5830 5834 5837 5840 5843 5847 5850 5853 5857 5860 5863 5867 5870 5873 5875 5878 5881 5884 5887 5890 5892 5895
5792 5791 5790 5790 5790 5790 5790 5790 5790 5790 5791 5793 5795 5797 5799 5803 5806 5809 5812 5815 5819 5823 5827 5830 5834 5837 5841 5844 5848 5851 5855 5858 5861 5865 5868 5870 5873 5876 5879 5882 5884 5887 5890
5781 5780 5780 5779 5779 5780 5780 5780 5780 5781 5783 5784 5786 5788 5791 5794 5797 5801 5805 5808 5812 5816 5820 5824 5828 5831 5835 5839 5842 5846 5849 5853 5856 5860 5862 5865 5868 5870 5873 5876 5879 5882 5884
5770 5769 5769 5769 5769 5769 5769 5770 5771 5772 5774 5775 5777 5779 5782 5785 5788 5792 5796 5800 5805 5809 5813 5817 5821 5826 5829 5833 5837 5841 5844 5848 5851 5854 5857 5860 5862 5865 5868 5870 5873 5876 5879
5759 5758 5758 5758 5758 5758 5759 5760 5760 5762 5763 5765 5767 5770 5772 5776 5780 5784 5788 5792 5797 5802 5806 5811 5815 5820 5824 5828 5832 5835 5839 5842 5846 5849 5852 5855 5857 5860 5863 5865 5868 5870 5873
5747 5746 5746 5746 5746 5747 5748 5748 5750 5751 5753 5755 5758 5760 5763 5767 5771 5776 5780 5784 5789 5794 5799 5804 5809 5813 5818 5822 5826 5830 5833 5837 5840 5843 5846 5849 5852 5855 5858 5860 5863 5865 5868
5735 5734 5733 5733 5733 5734 5735 5737 5738 5740 5742 5745 5748 5751 5754 5758 5762 5766 5771 5775 5781 5786 5791 5797 5802 5806 5811 5815 5820 5824 5828 5831 5835 5838 5841 5844 5847 5850 5852 5855 5858 5860 5863
5721 5720 5719 5720 5720 5720 5722 5724 5726 5728 5730 5734 5737 5741 5744 5748 5753 5756 5761 5767 5773 5778 5784 5789 5794 5799 5804 5809 5813 5818 5822 5826 5829 5832 5836 5839 5842 5845 5848 5850 5853 5856 5858
5707 5706 5705 5705 5705 5706 5707 5710 5712 5715 5718 5721 5725 5730 5734 5738 5742 5747 5752 5757 5763 5769 5774 5780 5786 5791 5796 5801 5806 5811 5816 5820 5824 5827 5830 5834 5837 5841 5843 5846 5848 5851 5854
5692 5690 5689 5689 5689 5691 5692 5695 5697 5701 5704 5708 5713 5717 5722 5727 5731 5736 5742 5747 5753 5760 5765 5771 5777 5782 5788 5793 5799 5804 5809 5813 5817 5821 5825 5829 5832 5836 5839 5841 5844 5847 5849
5676 5674 5673 5673 5673 5674 5676 5679 5682 5685 5690 5694 5699 5704 5710 5715 5720 5726 5731 5737 5743 5749 5756 5762 5768 5773 5779 5785 5791 5796 5801 5806 5811 5815 5819 5823 5827 5830 5834 5837 5839 5842 5845
5662 5659 5658 5657 5657 5657 5659 5662 5665 5669 5674 5679 5684 5690 5696 5702 5708 5714 5720 5726 5732 5739 5745 5752 5758 5764 5770 5776 5782 5788 5793 5798 5804 5808 5813 5817 5821 5825 5828 5831 5834 5837 5840
5648 5645 5643 5642 5641 5641 5642 5644 5648 5652 5657 5662 5668 5674 5681 5688 5694 5701 5707 5714 5721 5727 5734 5742 5748 5754 5761 5766 5773 5779 5785 5791 5796 5801 5806 5810 5815 5819 5822 5826 5829 5832 5835
5635 5631 5629 5627 5626 5626 5627 5628 5631 5636 5640 5646 5652 5658 5665 5672 5680 5687 5693 5700 5708 5715 5722 5729 5737 5744 5750 5757 5763 5770 5776 5781 5787 5793 5798 5803 5808 5812 5816 5819 5823 5826 5829
5623 5619 5616 5614 5613 5612 5613 5614 5616 5620 5625 5630 5636 5642 5649 5657 5664 5672 5679 5686 5694 5702 5710 5717 5725 5732 5739 5746 5753 5759 5766 5772 5779 5785 5789 5794 5799 5804 5809 5812 5816 5819 5822
5613 5609 5605 5603 5601 5599 5599 5600 5602 5605 5610 5615 5620 5627 5634 5641 5649 5657 5664 5672 5680 5688 5696 5705 5712 5720 5727 5735 5742 5749 5755 5762 5769 5774 5780 5785 5790 5796 5801 5805 5809 5813 5816
5604 5599 5596 5593 5590 5589 5588 5589 5591 5593 5597 5601 5607 5613 5620 5626 5634 5642 5650 5658 5666 5674 5683 5691 5699 5707 5714 5721 5729 5737 5744 5751 5757 5764 5770 5776 5781 5787 5792 5797 5801 5805 5809
5597 5592 5587 5584 5582 5580 5579 5579 5581 5583 5586 5590 5595 5601 5607 5613 5621 5629 5636 5645 5652 5660 5667 5677 5685 5693 5701 5709 5717 5725 5732 5740 5747 5754 5760 5766 5772 5777 5782 5787 5792 5796 5800
5592 5586 5582 5578 5576 5574 5572 5572 5573 5575 5578 5582 5586 5591 5597 5602 5608 5615 5623 5631 5639 5646 5654 5663 5671 5679 5688 5696 5705 5713 5721 5728 5735 5743 5749 5756 5762 5767 5773 5778 5783 5787 5791